Flag for Germany Weather past 2 weeks in Mönchengladbach, North Rhine-Westphalia, Germany

Now
54 °F

Clear.


Feels Like: 52 °F
Forecast: 38 / 58 °F
Wind: 6 mph from Northeast

Location: Monchengladbach Airport

Current Time: Apr 18, 2015 at 9:58:37 PM

Latest Report: Apr 18, 2015 at 8:20 PM


Visibility: 10 mi

Pressure: 30.24 "Hg

Humidity: 41%

Dew point: 30 °F

Location of MönchengladbachLocation

Historic Weather in Mönchengladbach — Graph

°F

Mönchengladbach temperature yesterday

Maximum temperature yesterday: 55 °F (at 4:20 PM)
Minimum temperature yesterday: 43 °F (at 7:50 AM)
Average temperature yesterday: 51 °F

Past Weeks' High & Low Weather Summary

 TemperatureHumidityPressure
High75 °F (Apr 15, 3:20 PM)100% (Apr 5, 8:20 AM)30.66 "Hg (Apr 5, 8:20 AM)
Low32 °F (Apr 5, 7:50 AM)27% (Apr 10, 2:50 PM)29.92 "Hg (Apr 15, 6:50 PM)
Average54 °F61%30.26 "Hg
* Reported Apr 3 8:20 PM — Apr 18 8:20 PM, Mönchengladbach, Weather by CustomWeather, © 2015

Note: Actual official high and low records may vary slightly from our data, if they occured in-between our weather recording intervals... More about our weather records

Advertising

Mönchengladbach weather history for previous 24 hours

 ConditionsComfort  
Time TempWeatherWind HumidityBarometerVisibility
8:20 PM
Sat, Apr 18
54 °FClear.6 mph41%30.24 "Hg10 mi
7:50 PM55 °FPassing clouds.7 mph38%30.24 "HgN/A
7:20 PM57 °FPassing clouds.7 mph33%30.24 "HgN/A
6:50 PM57 °FPassing clouds.8 mph36%30.27 "HgN/A
6:20 PM57 °FPassing clouds.8 mph36%30.27 "HgN/A
5:50 PM57 °FPassing clouds.8 mph36%30.27 "HgN/A
5:20 PM57 °FPassing clouds.8 mph33%30.27 "HgN/A
4:50 PM57 °FPassing clouds.9 mph33%30.27 "HgN/A
4:20 PM57 °FPassing clouds.10 mph33%30.30 "HgN/A
3:50 PM55 °FPassing clouds.9 mph36%30.30 "HgN/A
3:20 PM57 °FPassing clouds.10 mph39%30.30 "HgN/A
2:50 PM55 °FPassing clouds.10 mph41%30.30 "HgN/A
2:20 PM54 °FPassing clouds.18 mph41%30.33 "HgN/A
1:50 PM54 °FPassing clouds.16 mph41%30.33 "HgN/A
1:20 PM55 °FPassing clouds.17 mph41%30.33 "HgN/A
12:50 PM54 °FPassing clouds.17 mph41%30.33 "HgN/A
12:20 PM54 °FPassing clouds.12 mph44%30.33 "HgN/A
11:50 AM52 °FScattered clouds.12 mph47%30.33 "HgN/A
11:20 AM50 °FPassing clouds.10 mph50%30.33 "HgN/A
10:50 AM50 °FPassing clouds.10 mph54%30.33 "HgN/A
10:20 AM48 °FPassing clouds.12 mph62%30.33 "HgN/A
9:50 AM46 °FPassing clouds.9 mph66%30.33 "HgN/A
9:20 AM46 °FPassing clouds.8 mph71%30.33 "HgN/A
8:50 AM45 °FPassing clouds.7 mph76%30.33 "HgN/A
8:20 AM43 °FPassing clouds.6 mph81%30.33 "HgN/A
7:50 AM39 °FSunny.5 mph93%30.30 "Hg10 mi
Weather by CustomWeather, © 2015

See weather overviewHow to use our weather pages